TimePDT,TemperatureF,Dew PointF,Humidity,Sea Level PressureIn,VisibilityMPH,Wind Direction,Wind SpeedMPH,Gust SpeedMPH,PrecipitationIn,Events,Conditions,WindDirDegrees,DateUTC
12:15 AM,48.2,48.2,100,30.08,7.0,West,3.5,-,N/A,,Overcast,280,2012-11-02 07:15:00
12:35 AM,46.4,46.4,100,30.08,9.0,NW,3.5,-,N/A,,Mostly Cloudy,310,2012-11-02 07:35:00
12:55 AM,46.4,46.4,100,30.08,10.0,NW,3.5,-,N/A,,Scattered Clouds,320,2012-11-02 07:55:00
1:15 AM,46.4,46.4,100,30.08,5.0,Calm,Calm,-,N/A,,Mostly Cloudy,0,2012-11-02 08:15:00
1:35 AM,44.6,44.6,100,30.07,1.0,Calm,Calm,-,N/A,,Mostly Cloudy,0,2012-11-02 08:35:00
1:55 AM,44.6,44.6,100,30.08,4.0,Calm,Calm,-,N/A,,Scattered Clouds,0,2012-11-02 08:55:00
2:15 AM,44.6,44.6,100,30.08,9.0,Calm,Calm,-,N/A,,Mostly Cloudy,0,2012-11-02 09:15:00
2:35 AM,44.6,44.6,100,30.08,6.0,NNW,4.6,-,N/A,,Mostly Cloudy,330,2012-11-02 09:35:00
2:55 AM,46.4,46.4,100,30.08,2.0,Calm,Calm,-,N/A,,Overcast,0,2012-11-02 09:55:00
3:15 AM,46.4,46.4,100,30.07,1.8,WNW,4.6,-,N/A,,Overcast,290,2012-11-02 10:15:00
3:35 AM,46.4,46.4,100,30.07,0.5,WNW,5.8,-,N/A,,Overcast,290,2012-11-02 10:35:00
3:55 AM,46.4,46.4,100,30.07,0.8,WNW,4.6,-,N/A,,Overcast,300,2012-11-02 10:55:00
4:15 AM,44.6,44.6,100,30.07,1.5,Calm,Calm,-,N/A,,Overcast,0,2012-11-02 11:15:00
4:35 AM,44.6,44.6,100,30.08,0.2,Calm,Calm,-,N/A,,Overcast,0,2012-11-02 11:35:00
4:55 AM,44.6,44.6,100,30.08,0.2,Calm,Calm,-,N/A,,Overcast,0,2012-11-02 11:55:00
5:15 AM,44.6,44.6,100,30.08,0.2,Calm,Calm,-,N/A,,Overcast,0,2012-11-02 12:15:00
5:35 AM,44.6,44.6,100,30.08,0.2,North,3.5,-,N/A,,Overcast,350,2012-11-02 12:35:00
5:55 AM,44.6,44.6,100,30.07,0.2,WNW,3.5,-,N/A,,Overcast,300,2012-11-02 12:55:00
6:15 AM,44.6,44.6,100,30.07,0.2,Calm,Calm,-,N/A,,Overcast,0,2012-11-02 13:15:00
6:35 AM,44.6,44.6,100,30.08,0.2,NNE,3.5,-,N/A,,Overcast,20,2012-11-02 13:35:00
6:55 AM,44.6,44.6,100,30.08,0.5,North,4.6,-,N/A,,Overcast,350,2012-11-02 13:55:00
7:15 AM,44.6,44.6,100,30.08,0.5,NNW,4.6,-,N/A,,Overcast,330,2012-11-02 14:15:00
7:35 AM,44.6,44.6,100,30.08,0.2,WNW,4.6,-,N/A,,Overcast,290,2012-11-02 14:35:00
7:55 AM,44.6,44.6,100,30.09,0.2,Calm,Calm,-,N/A,,Overcast,0,2012-11-02 14:55:00
8:15 AM,44.6,44.6,100,30.10,0.2,Calm,Calm,-,N/A,,Overcast,0,2012-11-02 15:15:00
8:35 AM,44.6,44.6,100,30.10,0.2,WNW,3.5,-,N/A,,Overcast,300,2012-11-02 15:35:00
8:55 AM,44.6,44.6,100,30.11,0.2,Calm,Calm,-,N/A,,Overcast,0,2012-11-02 15:55:00
9:15 AM,44.6,44.6,100,30.12,0.2,NW,4.6,-,N/A,,Overcast,310,2012-11-02 16:15:00
9:35 AM,44.6,44.6,100,30.11,0.2,NW,4.6,-,N/A,,Overcast,310,2012-11-02 16:35:00
9:55 AM,46.4,46.4,100,30.11,0.2,West,4.6,-,N/A,,Overcast,280,2012-11-02 16:55:00
10:15 AM,46.4,46.4,100,30.11,0.2,WNW,4.6,-,N/A,,Overcast,300,2012-11-02 17:15:00
10:35 AM,48.2,48.2,100,30.11,0.2,NNW,3.5,-,N/A,,Overcast,330,2012-11-02 17:35:00
10:55 AM,50.0,50.0,100,30.10,2.0,West,3.5,-,N/A,,Overcast,280,2012-11-02 17:55:00
11:15 AM,51.8,51.8,100,30.11,10.0,WNW,4.6,-,N/A,,Mostly Cloudy,300,2012-11-02 18:15:00
11:35 AM,53.6,53.6,100,30.10,10.0,North,4.6,-,N/A,,Partly Cloudy,10,2012-11-02 18:35:00
11:55 AM,55.4,55.4,100,30.10,10.0,WNW,5.8,-,N/A,,Clear,300,2012-11-02 18:55:00
12:15 PM,57.2,53.6,88,30.10,10.0,WNW,5.8,-,N/A,,Clear,300,2012-11-02 19:15:00
12:55 PM,62.6,51.8,68,30.08,10.0,NW,4.6,-,N/A,,Clear,320,2012-11-02 19:55:00
1:15 PM,62.6,50.0,63,30.08,10.0,West,5.8,-,N/A,,Clear,280,2012-11-02 20:15:00
1:35 PM,64.4,50.0,59,30.07,10.0,NW,3.5,-,N/A,,Clear,310,2012-11-02 20:35:00
1:55 PM,64.4,51.8,64,30.06,10.0,NNW,4.6,-,N/A,,Clear,330,2012-11-02 20:55:00
2:15 PM,66.2,50.0,56,30.06,10.0,NW,5.8,-,N/A,,Clear,320,2012-11-02 21:15:00
2:35 PM,66.2,50.0,56,30.06,10.0,West,9.2,-,N/A,,Clear,280,2012-11-02 21:35:00
2:55 PM,66.2,48.2,52,30.06,10.0,West,4.6,-,N/A,,Clear,260,2012-11-02 21:55:00
3:15 PM,64.4,48.2,56,30.05,10.0,West,6.9,-,N/A,,Clear,280,2012-11-02 22:15:00
3:35 PM,64.4,48.2,56,30.06,10.0,West,8.1,-,N/A,,Clear,260,2012-11-02 22:35:00
3:55 PM,64.4,46.4,52,30.05,10.0,WSW,8.1,-,N/A,,Clear,250,2012-11-02 22:55:00
4:15 PM,62.6,46.4,55,30.05,10.0,West,5.8,-,N/A,,Clear,270,2012-11-02 23:15:00
4:35 PM,62.6,46.4,55,30.05,10.0,WNW,5.8,-,N/A,,Clear,290,2012-11-02 23:35:00
4:55 PM,60.8,46.4,59,30.05,10.0,WNW,3.5,-,N/A,,Clear,300,2012-11-02 23:55:00
5:15 PM,59.0,46.4,63,30.05,10.0,NW,4.6,-,N/A,,Clear,310,2012-11-03 00:15:00
5:35 PM,59.0,46.4,63,30.05,10.0,WNW,4.6,-,N/A,,Clear,300,2012-11-03 00:35:00
5:55 PM,57.2,48.2,72,30.05,10.0,NW,3.5,-,N/A,,Clear,320,2012-11-03 00:55:00
6:15 PM,55.4,48.2,77,30.06,10.0,WNW,4.6,-,N/A,,Clear,300,2012-11-03 01:15:00
6:35 PM,55.4,48.2,77,30.06,10.0,NW,3.5,-,N/A,,Clear,310,2012-11-03 01:35:00
6:55 PM,53.6,48.2,82,30.07,10.0,NW,3.5,-,N/A,,Clear,320,2012-11-03 01:55:00
7:15 PM,53.6,48.2,82,30.07,10.0,NNW,3.5,-,N/A,,Clear,330,2012-11-03 02:15:00
7:55 PM,53.6,50.0,88,30.08,10.0,NNW,3.5,-,N/A,,Scattered Clouds,330,2012-11-03 02:55:00
8:15 PM,53.6,50.0,88,30.08,10.0,NNW,4.6,-,N/A,,Mostly Cloudy,340,2012-11-03 03:15:00
8:35 PM,50.0,48.2,94,30.07,10.0,Calm,Calm,-,N/A,,Mostly Cloudy,0,2012-11-03 03:35:00
8:55 PM,50.0,50.0,100,30.07,10.0,NW,3.5,-,N/A,,Mostly Cloudy,320,2012-11-03 03:55:00
9:15 PM,51.8,50.0,94,30.08,10.0,NNW,3.5,-,N/A,,Mostly Cloudy,340,2012-11-03 04:15:00
9:35 PM,51.8,50.0,94,30.07,10.0,Calm,Calm,-,N/A,,Mostly Cloudy,0,2012-11-03 04:35:00
9:55 PM,53.6,51.8,94,30.08,10.0,West,4.6,-,N/A,,Mostly Cloudy,270,2012-11-03 04:55:00
10:15 PM,50.0,50.0,100,30.09,10.0,North,3.5,-,N/A,,Mostly Cloudy,360,2012-11-03 05:15:00
10:35 PM,50.0,50.0,100,30.09,10.0,NNW,4.6,-,N/A,,Overcast,340,2012-11-03 05:35:00
10:55 PM,50.0,50.0,100,30.08,10.0,Calm,Calm,-,N/A,,Mostly Cloudy,0,2012-11-03 05:55:00
11:15 PM,50.0,50.0,100,30.09,10.0,Calm,Calm,-,N/A,,Scattered Clouds,0,2012-11-03 06:15:00
11:35 PM,50.0,50.0,100,30.08,10.0,Calm,Calm,-,N/A,,Partly Cloudy,0,2012-11-03 06:35:00
11:55 PM,50.0,50.0,100,30.08,10.0,Calm,Calm,-,N/A,,Partly Cloudy,0,2012-11-03 06:55:00